�������C�����ː����j�^�v���󋵏��
Date,Time,Cs137(Bq/L),Cs134(Bq/L),�S��(Bq/L)
2016/12/21,00:00,0.76,0.076,ND
2016/12/21,00:10,0.76,0.081,ND
2016/12/21,00:20,0.76,0.087,ND
2016/12/21,00:30,0.75,0.088,ND
2016/12/21,00:40,0.74,0.093,ND
2016/12/21,00:50,0.77,0.078,ND
2016/12/21,01:00,0.78,0.078,ND
2016/12/21,01:10,0.81,0.065,ND
2016/12/21,01:20,0.77,0.070,ND
2016/12/21,01:30,0.77,0.067,ND
2016/12/21,01:40,0.78,0.065,ND
2016/12/21,01:50,0.78,0.063,ND
2016/12/21,02:00,0.78,0.065,ND
2016/12/21,02:10,0.76,0.064,ND
2016/12/21,02:20,0.79,0.059,ND
2016/12/21,02:30,0.79,0.059,ND
2016/12/21,02:40,0.79,0.062,ND
2016/12/21,02:50,0.78,0.060,ND
2016/12/21,03:00,0.78,0.062,ND
2016/12/21,03:10,0.79,0.073,ND
2016/12/21,03:20,0.78,0.077,ND
2016/12/21,03:30,0.78,0.081,ND
2016/12/21,03:40,0.78,0.080,ND
2016/12/21,03:50,0.78,0.088,ND
2016/12/21,04:00,0.79,0.082,ND
2016/12/21,04:10,0.79,0.076,ND
2016/12/21,04:20,0.78,0.077,ND
2016/12/21,04:30,0.77,0.067,ND
2016/12/21,04:40,0.77,0.071,ND
2016/12/21,04:50,0.76,0.070,ND
2016/12/21,05:00,0.76,0.070,ND
2016/12/21,05:10,0.77,0.072,ND
2016/12/21,05:20,0.76,0.070,ND
2016/12/21,05:30,0.79,0.073,ND
2016/12/21,05:40,0.81,0.072,ND
2016/12/21,05:50,0.82,0.074,ND
2016/12/21,06:00,0.82,0.074,ND
2016/12/21,06:10,0.81,0.070,ND
2016/12/21,06:20,0.83,0.067,ND
2016/12/21,06:30,0.81,0.079,ND
2016/12/21,06:40,0.80,0.071,ND
2016/12/21,06:50,0.79,0.083,ND
2016/12/21,07:00,0.80,0.087,ND
2016/12/21,07:10,0.80,0.090,ND
2016/12/21,07:20,0.80,0.089,ND
2016/12/21,07:30,0.84,0.089,ND
2016/12/21,07:40,0.85,0.084,ND
2016/12/21,07:50,0.81,0.069,ND
2016/12/21,08:00,0.80,0.063,ND
2016/12/21,08:10,0.78,0.067,ND
2016/12/21,08:20,0.80,0.057,ND
2016/12/21,08:30,0.79,0.069,ND
2016/12/21,08:40,0.80,0.070,ND
2016/12/21,08:50,0.81,0.071,ND
2016/12/21,09:00,0.81,0.074,ND
2016/12/21,09:10,0.82,0.073,ND
2016/12/21,09:20,0.80,0.076,ND
2016/12/21,09:30,0.82,0.079,ND
2016/12/21,09:40,0.79,0.090,ND
2016/12/21,09:50,0.81,0.088,ND
2016/12/21,10:00,0.80,0.087,ND
2016/12/21,10:10,0.81,0.085,ND
2016/12/21,10:20,0.82,0.088,ND
2016/12/21,10:30,0.80,0.088,ND
2016/12/21,10:40,0.83,0.081,ND
2016/12/21,10:50,0.80,0.079,ND
2016/12/21,11:00,0.83,0.075,ND
2016/12/21,11:10,0.83,0.069,ND
2016/12/21,11:20,0.84,0.069,ND
2016/12/21,11:30,0.84,0.067,ND
2016/12/21,11:40,0.84,0.065,ND
2016/12/21,11:50,0.83,0.11,ND
2016/12/21,12:00,0.82,0.074,ND
2016/12/21,12:10,0.82,0.075,ND
2016/12/21,12:20,0.81,0.078,ND
2016/12/21,12:30,0.81,0.074,ND
2016/12/21,12:40,0.80,0.072,ND
2016/12/21,12:50,0.79,0.069,ND
2016/12/21,13:00,0.78,0.076,ND
2016/12/21,13:10,0.77,0.081,ND
2016/12/21,13:20,0.77,0.081,ND
2016/12/21,13:30,0.78,0.088,ND
2016/12/21,13:40,0.78,0.086,ND
2016/12/21,13:50,0.81,0.088,ND
2016/12/21,14:00,0.85,0.083,ND
2016/12/21,14:10,0.86,0.080,ND
2016/12/21,14:20,0.88,0.079,ND
2016/12/21,14:30,0.88,0.074,ND
2016/12/21,14:40,0.87,0.080,ND
2016/12/21,14:50,0.87,0.071,ND
2016/12/21,15:00,0.86,0.073,ND
2016/12/21,15:10,0.87,0.065,ND
2016/12/21,15:20,0.86,0.058,ND
2016/12/21,15:30,0.84,0.11,ND
2016/12/21,15:40,0.85,0.10,ND
2016/12/21,15:50,0.86,0.089,ND
2016/12/21,16:00,0.85,0.082,ND
2016/12/21,16:10,0.86,0.087,ND
2016/12/21,16:20,0.86,0.083,ND
2016/12/21,16:30,0.84,0.069,ND
2016/12/21,16:40,0.84,0.070,ND
2016/12/21,16:50,0.84,0.074,ND
2016/12/21,17:00,0.86,0.074,ND
2016/12/21,17:10,0.86,0.074,ND
2016/12/21,17:20,0.85,0.075,ND
2016/12/21,17:30,0.84,0.074,ND
2016/12/21,17:40,0.85,0.070,ND
2016/12/21,17:50,0.85,0.061,ND
2016/12/21,18:00,0.85,0.058,ND
2016/12/21,18:10,0.84,0.057,ND
2016/12/21,18:20,0.89,0.070,ND
2016/12/21,18:30,0.88,0.075,ND
2016/12/21,18:40,0.87,0.079,ND
2016/12/21,18:50,0.89,0.079,ND
2016/12/21,19:00,0.84,0.064,ND
2016/12/21,19:10,0.82,0.076,ND
2016/12/21,19:20,0.82,0.072,ND
2016/12/21,19:30,0.81,0.071,ND
2016/12/21,19:40,0.80,0.068,ND
2016/12/21,19:50,0.77,0.072,ND
2016/12/21,20:00,0.76,0.077,ND
2016/12/21,20:10,0.77,0.077,ND
2016/12/21,20:20,0.76,0.080,ND
2016/12/21,20:30,0.78,0.088,ND
2016/12/21,20:40,0.82,0.089,ND
2016/12/21,20:50,0.83,0.084,ND
2016/12/21,21:00,0.84,0.076,ND
2016/12/21,21:10,0.84,0.074,ND
2016/12/21,21:20,0.84,0.062,ND
2016/12/21,21:30,0.84,0.058,ND
2016/12/21,21:40,0.82,0.052,ND
2016/12/21,21:50,0.83,0.062,ND
2016/12/21,22:00,0.84,0.060,ND
2016/12/21,22:10,0.84,0.057,ND
2016/12/21,22:20,0.84,0.063,ND
2016/12/21,22:30,0.85,0.059,ND
2016/12/21,22:40,0.84,0.062,ND
2016/12/21,22:50,0.84,0.057,ND
2016/12/21,23:00,0.81,0.065,ND
2016/12/21,23:10,0.81,0.069,ND
2016/12/21,23:20,0.80,0.065,ND
2016/12/21,23:30,0.78,0.069,ND
2016/12/21,23:40,0.79,0.070,ND
2016/12/21,23:50,0.77,0.078,ND
